848  
ASUS44 KSJT 241010  
RWRSJT  
WEST CENTRAL TEXAS REGIONAL WEATHER ROUNDUP  
NATIONAL WEATHER SERVICE SAN ANGELO TX  
500 AM CDT SUN JUN 24 2018  
 
NOTE: "FAIR" INDICATES FEW OR NO CLOUDS BELOW 12,000 FEET WITH NO  
SIGNIFICANT WEATHER AND/OR S TO VISIBILITY
.  
 
TXZ049-054-064>066-071>073-076>078-098-099-113-114-127-128-139-140-  
154-155-168>170-241100   
..LOCATIONS ACROSS WEST CENTRAL TEXAS
 
 
 
CITY SKY/WX TMP DP RH WIND PRES REMARKS
 
SAN ANGELO CLEAR 82 72 71 S20G26 29.78R  
ABILENE PTCLDY 78 71 79 S16G25 29.72F  
DYESS AFB CLOUDY 80 68 66 S21G30 29.71F  
JUNCTION CLEAR 79 71 76 S13G25 29.83F  
SWEETWATER CLEAR 80 69 69 S20 29.79F  
BROWNWOOD CLOUDY 79 73 83 S12G17 29.77R  
COLEMAN CLOUDY 77 72 83 S10G16 29.77S  
SONORA CLEAR 81 70 69 S15 29.88S  
OZONA FAIR 79 70 73 S22G31 29.84F  
BRADY CLEAR 79 70 73 S17G29 29.80S  

 
 
TEXAS PANHANDLE/OKLAHOMA PANHANDLE  
 
CITY SKY/WX TMP DP RH WIND PRES REMARKS
 
AMARILLO CLEAR 69 65 86 NE13 29.82R  
BORGER CLOUDY 68 65 90 E12 29.80S  
CANADIAN CLOUDY 67 65 93 E7 29.79F FOG  
DALHART CLOUDY 68 66 93 E9 29.84R FOG  
DUMAS CLOUDY 68 66 94 E13 29.82S FOG  
GUYMON NOT AVBL  
HEREFORD SUNNY 74 65 71 S9 29.80S  
PAMPA CLOUDY 67 65 93 E17 29.82F  
PERRYTON CLOUDY 65 60 84 E13 29.79F  

 
 
SOUTHERN PANHANDLE/SOUTH PLAINS/ROLLING PLAINS  
 
CITY SKY/WX TMP DP RH WIND PRES REMARKS
 
LUBBOCK PTCLDY 81 66 60 S20G29 29.77S  
SNYDER CLEAR 80 67 64 S15G22 29.77F  
CHILDRESS CLEAR 77 64 64 S3 29.72R  
SEMINOLE SUNNY 80 63 55 S15 29.82S  

 
 
PERMIAN BASIN  
 
CITY SKY/WX TMP DP RH WIND PRES REMARKS
 
MIDLAND CLEAR 82 66 58 S23G30 29.79F  
ODESSA CLEAR 82 64 54 S22G28 29.81S  
WINK CLEAR 82 63 52 SE14 29.75R  

 
 
FAR WEST/SOUTHWEST MOUNTAINS/TRANS PECOS  
 
CITY SKY/WX TMP DP RH WIND PRES REMARKS
 
ALPINE CLOUDY 76 48 36 W10 29.98R  
DRYDEN N/A 82 69 64 E17G24 29.79R  
EL PASO CLEAR 84 34 16 W13G18 29.87R  
FORT STOCKTON CLOUDY 80 64 58 SE20 29.80R  
GUADALUPE PASS CLEAR 75 37 25 W26 29.96S  
MARFA CLEAR 62 49 62 NW5 29.99  
PECOS SUNNY 71 51 48 S8 29.75R  

 
 
DALLAS/FORT WORTH METROPLEX  
 
CITY SKY/WX TMP DP RH WIND PRES REMARKS
 
DFW AIRPORT MOCLDY 81 72 74 S16G26 29.69R  
FTW MEACHAM MOCLDY 82 73 74 S18G31 29.67R  
DAL-EXECUTIVE CLOUDY 82 71 69 S24G33 29.69R  
GRAND PRAIRIE MOCLDY 81 70 68 S26G37 29.66F  
ADDISON MOCLDY 81 71 71 S14G25 29.74R  
MESQUITE CLOUDY 80 70 72 S17G24 29.74R  
LANCASTER CLOUDY 80 71 73 S16G29 29.71S  

 
 
NORTH CENTRAL TEXAS  
 
CITY SKY/WX TMP DP RH WIND PRES REMARKS
 
SHRMAN/DENISON PTSUNNY 80 71 74 S17G24 29.74S  
GAINESVILLE NOT AVBL  
BRIDGEPORT MOSUNNY 79 69 71 S8 29.73R  
DENTON MOCLDY 81 71 71 S15 29.71R  
WAXAHACHIE CLOUDY 79 72 77 S26G38 29.71F  
GRANBURY CLOUDY 83 71 67 S14G26 29.72R  

 
 
WESTERN NORTH TEXAS  
 
CITY SKY/WX TMP DP RH WIND PRES REMARKS
 
WICHITA FALLS CLOUDY 77 69 76 E3 29.67R  
VERNON CLOUDY 76 70 82 NE10 29.71R  
BRECKENRIDGE CLOUDY 83 69 64 S16G29 29.71R  
COMANCHE CLOUDY 79 73 79 MISG 29.77R  

 
 
CENTRAL AND SOUTH CENTRAL TEXAS  
 
CITY SKY/WX TMP DP RH WIND PRES REMARKS
 
AUSTIN/BERGSTM PTCLDY 79 74 84 S15 29.84F  
WACO CLOUDY 80 72 76 S24G33 29.77F  
HILLSBORO CLOUDY 81 73 76 S25G33 29.74F  
TEMPLE CLOUDY 78 74 87 S20G32 29.80F  
KILLEEN-GRAY PTCLDY 77 71 80 S21G26 29.77F  
FORT HOOD PTCLDY 78 71 81 S17G25 29.74F  
GEORGETOWN MOCLDY 79 73 82 S10G23 29.85F  
LAGO VISTA FAIR 77 73 88 S10G18 29.87S  
SAN MARCOS MOCLDY 79 75 87 S9 29.88R  
NEW BRAUNFELS MOCLDY 78 73 84 S10 29.87R  
RANDOLPH AFB CLOUDY 78 73 86 S7 29.87F  
SAN ANTONIO MOCLDY 79 72 79 SE9 29.88S  
STINSON CLOUDY 80 74 81 S10 29.85S  
PLEASANTON NOT AVBL  
LA GRANGE MOCLDY 79 78 96 SE6 29.85F  
GIDDINGS SUNNY 75 73 93 S6 29.87F  

 
 
EAST TEXAS  
 
CITY SKY/WX TMP DP RH WIND PRES REMARKS
 
PARIS MOCLDY 78 74 87 S15 29.78S  
CLARKSVILLE NOT AVBL  
TYLER MOCLDY 79 75 87 S20G29 29.80F  
LONGVIEW MOCLDY 79 75 87 S12 29.84F  
PALESTINE PTSUNNY 78 74 88 S9 29.85F  
NACOGDOCHES N/A 78 75 90 S8 29.89F  

 
 
TEXAS HILL COUNTRY AND EDWARDS PLATEAU  
 
CITY SKY/WX TMP DP RH WIND PRES REMARKS
 
LLANO MOSUNNY 79 70 73 S12G20 29.84F  
HORSESHOE BAY FAIR 77 71 81 CALM 29.84R  
KERRVILLE MOCLDY 76 71 83 SE15 29.88F  
FREDERICKSBRG MOCLDY 74 68 80 S9 29.88F  
ROCKSPRINGS CLOUDY 77 70 78 SE21G28 29.92F  
HONDO MOCLDY 79 73 82 SE9 29.87S  
UVALDE MOSUNNY 77 73 85 E10 29.85R  
DEL RIO MOCLDY 83 71 67 E17G28 29.78R  

 
 
SOUTHEAST TEXAS  
 
CITY SKY/WX TMP DP RH WIND PRES REMARKS
 
COLLEGE STN MOCLDY 78 77 96 S10 29.86F  
CALDWELL MOSUNNY 78 75 91 S14 29.85F  
CROCKETT CLOUDY 75 75 100 S9 29.88F  
BRENHAM CLOUDY 80 78 95 S7 29.88S  
HUNTSVILLE PTCLDY 78 74 87 S9 29.88F  
CONROE LGT RAIN 79 78 97 S6 29.89F  
HOUSTON BUSH FAIR 80 77 90 S7 29.88S  
HOUSTON HOBBY FAIR 79 78 97 S6 29.88F  
PERLAND FAIR 80 77 90 S7 29.89F  
WHARTON MOSUNNY 78 74 89 S6 29.88S  

 
 
THE UPPER TEXAS COAST  
 
CITY SKY/WX TMP DP RH WIND PRES REMARKS
 
ORANGE FAIR 82 78 89 SW9 29.92S  
PORT ARTHUR FAIR 80 75 84 S13 29.90S  
GALVESTON MOCLDY 83 79 88 S18 29.89F  
ANGLETON FAIR 81 77 88 S8 29.88S  
BAY CITY FAIR 81 77 88 S9 29.87F  

 
 
TEXAS COASTAL BEND, RIO GRANDE PLAINS DEEP SOUTH TEXAS  
 
CITY SKY/WX TMP DP RH WIND PRES REMARKS
 
VICTORIA CLOUDY 80 76 87 S12 29.86R  
BEEVILLE CLOUDY 78 76 91 S15G22 29.83S  
ROCKPORT MOCLDY 82 78 88 S14G23 29.84R  
PORT ARANSAS PTSUNNY 82 77 84 S20G25 29.85F  
PORT LAVACA PTSUNNY 79 75 88 S8 29.86F  
CORPUS CHRISTI PTCLDY 79 79 100 S15G23 29.84S  
KINGSVILLE NAS PTCLDY 80 76 87 SE15 29.83F  
COTULLA PTCLDY 78 73 84 SE8 29.82R  
LAREDO PTCLDY 79 73 82 SE18 29.79S  
BROWNSVILLE FAIR 81 78 91 SE9 29.85S  
PORT ISABEL FAIR 81 76 84 S9 29.84S  
HEBBRONVILLE CLOUDY 77 72 85 S13 29.83S  
MCALLEN MOCLDY 82 79 90 SE12 29.84R  
WESLACO NOT AVBL  
FALFURRIAS MOSUNNY 80 75 84 SE12 29.82F  
EDINBURG SUNNY 81 76 84 SE9 29.83S  

 
 
 
CLICK HERE TO GO TO PREVIOUS BULLETINS.

The Nexlab TX Page Main Text Page